Location: Cheny Ridge Estates
(40.6074°N, 111.8785°W)
Time: 19:11:03
(UTC+00:00)

N. Korean satellite - Visible Passes

Search period start: 05 March 2021 00:00
Search period end: 15 March 2021 00:00
Orbit: 451 x 502 km, 97.2° (Epoch: 05 March)

Date Brightness Start Highest point End Pass type
(mag) Time Alt. Az. Time Alt. Az. Time Alt. Az.
05 Mar 8.4 12:24:31 10° NNE 12:27:48 33° E 12:31:05 10° SSE visible
06 Mar 9.7 11:58:39 10° NE 12:00:55 16° E 12:03:10 10° SE visible
07 Mar 6.5 13:04:01 10° N 13:07:34 67° WNW 13:11:09 10° SSW visible
08 Mar 7.5 12:37:17 10° NNE 12:40:48 51° E 12:44:20 10° S visible
09 Mar 9.1 12:11:01 10° NE 12:13:56 23° E 12:16:52 10° SSE visible
10 Mar 10.1 11:46:01 10° ENE 11:46:58 11° E 11:47:55 10° ESE visible
10 Mar 6.9 13:17:02 10° N 13:20:28 44° WNW 13:23:56 10° SSW visible
11 Mar 6.7 12:50:06 10° NNE 12:53:43 79° E 12:57:22 10° S visible
12 Mar 8.4 12:23:34 10° NNE 12:26:53 33° E 12:30:13 10° SSE visible
13 Mar 9.7 11:57:39 10° NE 11:59:57 16° E 12:02:15 10° SE visible
14 Mar 6.5 13:02:57 10° N 13:06:35 69° WNW 13:10:13 10° SSW visible
